Current weather by "City, St" or "zip code"  
 

Current Conditions: Ionia County Airport, MI

Overcast


38.0 F

Last Updated on Oct 29 2020, 9:55 pm EDT
Humidity: 79%
Wind Speed: NE 9.2 G 17.3 mph
Barometer 29.95 in
Dewpoint: 32.0 F
Visibility: 10.00 mi
Precip: --
Heat Index: NA
Wind Chill: 32 F
Current conditions at:

Ionia County Airport, MI (KY70)

Lat: 42.938 Lon: 85.0605

Local Radar Image active severe weather and emergency alerts image image weather storm and storm spotter reports image weather observation monitoring service image
Local
Radar
Active
Alerts
Storm Reports Obs
Monitoring

Sign-up For Email & Text Message Weather Alert Notification Services



Advertise Here

Observation History for Ionia County Airport, MI


Time Wind
(mph)
Vis
(mi)
Weather Precip (in) Temperature (F) Relative
Humidity
Wind
Chill
(F)
Heat
Index
(F)
Pressure
Air Dwpt altimeter
(in)
sea level
(mb)
Rmks
9:55 pm EDT NE 9.2 G 17.3 10.00 Overcast -- 38.0 32.0 79% 32 NA 29.95 M
8:55 pm EDT NE 12.7 G 17.3 10.00 Overcast -- 39.0 32.5 77% 31 NA 29.95 M
7:55 pm EDT NE 11.5 G 18.4 10.00 Overcast -- 41.0 32.4 71% 34 NA 29.94 M
6:55 pm EDT NE 13.8 10.00 Overcast -- 43.0 31.6 65% 36 NA 29.91 M
5:55 pm EDT N 11.5 G 16.1 10.00 Overcast -- 43.0 31.1 63% 37 NA 29.88 M
4:55 pm EDT N 15.0 10.00 Overcast -- 44.0 30.7 60% 37 NA 29.87 M
3:55 pm EDT N 16.1 10.00 Overcast -- 44.0 30.4 59% 37 NA 29.84 M
2:55 pm EDT N 13.8 G 20.7 10.00 Overcast -- 44.0 32.7 65% 37 NA 29.84 M
1:55 pm EDT N 16.1 10.00 Overcast -- 42.0 34.2 74% 34 NA 29.83 M
12:55 pm EDT N 13.8 G 19.6 7.00 Overcast -- 41.0 35.4 81% 33 NA 29.87 M
11:55 am EDT N 17.3 G 24.2 7.00 Overcast -- 42.0 35.8 79% 34 NA 29.85 M
10:55 am EDT N 12.7 G 19.6 10.00 Overcast -- 43.0 35.8 76% 36 NA 29.86 M
9:55 am EDT NE 11.5 G 18.4 10.00 Overcast -- 42.0 34.2 75% 36 NA 29.85 M
8:55 am EDT N 9.2 10.00 Fair -- 39.0 32.4 78% 33 NA 29.84 M
7:55 am EDT N 8.1 10.00 Fair -- 38.0 32.0 80% 32 NA 29.82 M
6:55 am EDT N 3.5 10.00 Fair -- 37.0 32.9 87% NA NA 29.84 M
5:55 am EDT N 0.0 10.00 Fair -- 37.0 32.0 84% NA NA 29.85 M
4:55 am EDT N 0.0 10.00 Fair -- 37.0 31.8 83% NA NA 29.82 M
3:55 am EDT SW 3.5 10.00 Fair -- 39.0 31.1 74% NA NA 29.87 M
2:15 am EDT N 0.0 10.00 Fair -- 38.0 30.2 73% NA NA 29.87 M
1:55 am EDT S 4.6 10.00 Fair -- 39.0 30.2 71% 36 NA 29.87 M
12:55 am EDT N 0.0 10.00 Fair -- 41.0 28.6 61% NA NA 29.90 M
11:55 pm EDT W 3.5 10.00 Fair -- 41.0 28.9 61% NA NA 29.90 M
10:55 pm EDT SW 4.6 10.00 Fair -- 42.0 27.5 57% 39 NA 29.92 M

Regional Weather Observation


Grand Rapids, Gerald R. Ford International Airport, MI (KGRR)

Overcast
40.0 F

Big Rapids, Roben-Hood Airport, MI (KRQB)

Overcast
37.0 F

Alma, Gratiot Community Airport, MI (KAMN)

Overcast
38.0 F

Mount Pleasant, Mount Pleasant Municipal Airport, MI (KMOP)

Overcast
37.0 F

Capital Region International Airport, MI (KLAN)

Overcast
37.0 F

Owosso, Owosso Community Airport, MI (KRNP)

Overcast
37.0 F